Theta_e
293 292 290 289 288 288 286 285 284 283 283 283 283 283 283 282 282 281 281 281 281 280 280 280 280 281 280 281 281 281 281 281 278 276 276 276 276 276 278 280 281 280 283
292 291 289 288 287 286 285 285 284 283 283 283 283 282 282 281 281 281 281 280 280 279 278 279 279 280 278 279 279 278 278 279 280 274 273 274 275 275 276 277 278 278 278
290 288 287 286 285 285 284 284 284 283 283 282 282 281 281 280 278 278 280 279 278 274 274 273 273 277 274 276 277 276 275 276 275 273 271 272 273 273 274 276 277 277 277
289 287 285 285 284 283 283 284 283 282 281 278 278 278 278 278 278 278 276 273 271 269 270 270 269 270 270 270 270 267 273 273 273 271 269 268 266 269 271 270 272 274 274
288 286 285 284 284 283 283 283 283 283 281 278 277 277 278 278 279 278 276 272 272 271 271 273 274 276 278 276 273 269 269 269 271 271 268 268 267 267 267 267 268 269 272
289 286 284 283 283 283 283 283 283 281 280 280 280 280 278 280 281 280 277 276 277 276 277 278 280 281 280 279 279 277 275 273 271 271 268 268 264 264 266 268 268 269 269
289 285 284 283 283 282 283 282 282 281 281 281 280 280 280 280 281 281 280 278 278 278 278 278 279 280 280 279 280 280 279 278 276 275 272 270 271 271 273 272 271 272 271
286 285 284 283 282 282 282 282 281 281 280 281 281 280 280 280 282 282 281 278 277 277 277 277 277 277 278 277 277 276 276 278 277 277 275 275 276 275 273 274 274 274 275
286 285 284 284 282 282 282 282 282 281 280 281 281 280 280 281 283 282 279 277 276 275 276 277 277 277 280 279 276 275 275 278 280 279 278 278 277 276 275 273 271 271 270
286 286 285 285 284 283 283 282 282 281 280 281 281 281 282 282 284 283 279 277 275 275 276 278 278 278 280 278 275 274 273 273 273 272 270 270 270 271 270 269 270 270 270
288 286 286 286 285 284 282 282 281 281 280 280 280 281 282 283 284 285 281 278 276 275 275 275 277 280 280 278 276 274 271 265 263 264 264 266 267 267 266 265 263 268 269
287 286 286 285 285 283 282 281 281 280 280 280 278 278 280 282 284 284 282 279 278 275 273 273 274 278 278 277 274 277 274 264 264 263 264 264 264 264 264 264 263 264 264
287 286 285 285 284 283 281 280 280 280 279 278 278 278 278 281 282 283 282 280 279 275 274 275 278 279 278 277 277 276 266 265 263 263 262 262 261 261 259 263 263 261 263
286 285 285 284 284 283 283 281 280 280 279 279 278 277 278 279 281 281 281 280 279 275 276 277 275 274 271 268 272 267 265 265 265 263 262 260 258 262 263 262 264 263 264
286 285 285 284 283 283 282 281 281 282 282 280 279 278 277 277 280 282 281 278 275 275 273 272 271 270 269 268 266 264 262 263 265 261 262 262 262 263 264 263 263 263 263
284 284 284 283 283 283 282 282 284 283 284 284 282 279 279 281 282 283 283 281 278 276 271 270 266 268 269 268 267 266 264 264 264 263 262 263 264 264 264 265 265 263 263
284 284 284 284 283 282 281 281 279 282 284 284 283 282 281 280 282 283 283 282 280 276 272 271 271 269 269 270 269 268 267 267 266 266 266 265 264 264 264 264 264 263 263
285 284 284 283 282 281 281 280 280 279 279 280 282 281 281 281 282 283 283 281 277 275 272 271 270 271 271 272 271 270 269 267 266 266 264 264 263 264 263 263 263 261 262
285 283 282 282 281 280 280 279 279 279 278 277 277 279 280 282 282 282 282 277 275 273 272 272 273 273 273 273 272 270 268 266 265 263 264 262 260 263 262 262 262 259 259
283 282 281 281 280 280 279 278 277 277 276 276 277 278 278 279 279 278 279 275 275 274 274 274 274 274 274 273 271 269 266 265 263 262 262 261 259 261 261 261 260 260 261
281 281 280 281 279 278 278 278 278 277 276 277 277 275 278 279 279 278 278 276 275 275 275 275 275 274 274 273 271 269 269 267 267 265 264 262 257 259 261 261 260 260 261
281 280 279 279 278 278 278 278 277 277 276 276 271 274 277 275 278 278 278 278 276 277 275 275 274 274 273 272 271 269 268 267 267 266 264 263 261 260 260 260 259 259 259
280 280 279 279 279 277 277 277 276 276 275 275 275 275 278 275 275 277 277 277 276 275 274 274 274 272 272 272 272 271 270 269 268 266 263 262 260 259 257 258 258 257 257
281 280 280 279 278 278 278 277 277 276 276 274 274 275 276 276 275 275 275 275 274 273 273 272 271 271 269 269 269 270 269 267 266 264 262 260 259 256 257 257 257 256 256
281 280 280 279 278 278 277 276 276 276 275 275 275 275 275 276 275 274 274 272 271 270 270 269 269 268 267 265 265 264 265 263 262 260 258 258 257 256 256 256 255 255 254
281 281 280 279 278 277 277 276 275 275 276 276 276 276 276 275 274 272 270 270 269 267 266 266 265 264 263 262 261 259 257 255 254 253 256 257 255 254 255 255 253 255 255
Wind_Speed
8 10 11 10 11 12 11 10 9 7 8 8 8 9 7 8 7 8 7 7 8 7 5 7 6 4 4 4 4 3 4 3 6 2 2 2 4 6 7 7 7 8 7
13 12 11 11 11 11 10 11 11 9 7 8 8 9 8 7 7 9 8 6 8 7 6 7 6 5 5 4 4 6 5 3 3 4 2 4 5 6 5 5 6 7 7
13 12 11 11 11 10 11 11 10 10 9 7 8 8 8 7 7 7 7 7 6 6 5 6 5 6 5 3 5 5 4 5 4 4 3 3 3 5 4 3 4 4 8
11 13 13 13 12 12 12 12 12 10 11 8 8 7 7 7 8 9 8 8 7 6 6 6 6 6 7 6 5 4 4 6 7 6 4 3 3 2 2 2 4 3 5
12 12 12 12 11 13 12 12 12 10 9 9 10 7 8 7 7 10 10 9 10 9 6 7 7 10 13 8 6 4 6 5 4 6 4 3 3 3 2 3 2 2 1
14 14 13 13 13 13 13 12 12 9 9 10 10 9 9 6 17 19 15 11 10 10 9 5 7 12 13 16 15 12 8 5 5 5 3 3 1 1 2 2 2 3 2
14 13 14 15 14 13 13 12 12 11 9 7 8 10 8 8 20 20 18 8 8 7 8 8 8 7 9 9 13 14 12 11 5 7 6 2 2 0 2 3 2 2 2
15 15 14 15 15 13 14 14 13 11 12 10 9 8 8 8 20 19 16 8 7 6 6 6 6 6 6 8 8 8 6 4 5 7 7 4 4 4 4 3 4 4 1
17 17 16 17 17 16 15 14 12 11 10 10 10 10 10 11 20 19 13 8 8 7 6 5 6 6 12 12 7 7 5 6 11 13 12 11 10 10 9 3 4 4 1
16 17 16 16 16 16 15 14 11 10 11 9 10 11 14 12 21 20 14 7 8 7 6 5 7 7 14 11 6 7 7 3 5 5 4 7 8 8 10 5 3 3 2
14 14 15 15 14 13 12 11 11 11 11 10 10 9 10 10 12 21 18 8 7 6 5 4 3 10 11 9 8 4 5 6 4 5 4 3 4 5 5 4 3 2 1
15 15 14 15 13 12 13 10 11 11 11 10 10 7 6 6 14 18 20 14 15 8 7 4 5 13 12 12 8 13 13 6 4 3 3 2 3 3 4 4 3 2 0
15 15 15 15 13 14 14 13 10 11 10 10 9 8 7 6 8 19 19 18 17 7 6 10 13 15 15 10 13 14 8 4 3 2 2 1 0 2 4 2 1 2 2
15 15 14 13 13 12 9 10 10 10 10 9 9 8 8 7 6 8 7 9 13 8 12 9 5 7 7 4 6 5 3 3 3 3 2 1 1 1 2 2 2 3 2
14 13 12 11 12 11 9 10 10 10 11 11 9 9 10 9 9 11 13 9 8 9 8 4 3 3 4 3 2 3 3 3 3 3 2 2 1 0 1 1 1 1 2
13 11 10 10 10 9 9 8 10 13 16 15 17 11 7 8 17 19 21 19 19 19 5 5 3 5 6 5 4 4 3 4 3 3 3 2 2 1 0 1 1 1 2
13 13 10 11 10 10 10 10 9 9 16 18 20 18 17 14 21 20 20 19 21 17 4 6 7 7 6 6 6 5 5 5 4 4 4 3 3 2 1 1 1 1 2
12 14 11 10 10 9 9 9 8 9 8 7 12 12 15 18 21 22 21 17 11 9 5 7 6 7 6 6 6 6 5 4 4 4 4 4 4 3 2 2 2 1 2
11 9 9 9 8 9 9 8 7 8 7 7 5 5 9 17 20 22 23 8 9 8 6 6 6 7 7 6 6 5 5 6 5 5 4 5 4 4 3 3 2 3 2
10 14 11 9 9 8 8 8 8 8 7 7 7 7 7 8 10 9 9 7 7 7 7 7 7 6 6 6 6 5 5 5 5 5 4 4 4 4 4 3 3 3 3
8 9 12 8 8 8 8 8 8 8 8 7 7 6 13 10 10 9 9 8 8 7 7 7 6 6 5 5 5 6 6 6 6 6 6 5 5 4 4 3 3 3 3
8 8 8 8 7 7 7 7 7 7 7 7 3 4 11 4 7 8 9 8 8 7 6 7 6 6 6 7 7 6 7 7 7 6 5 5 5 5 4 3 3 3 3
8 9 8 7 7 8 7 7 7 6 6 5 6 7 7 6 6 7 7 6 6 6 5 6 5 5 4 5 5 7 7 8 8 7 6 6 6 5 4 3 3 3 3
9 9 9 8 7 7 7 7 6 7 7 6 6 6 7 6 6 6 5 5 5 4 4 4 4 6 5 4 4 4 4 5 5 6 8 7 6 6 4 3 3 3 2
8 8 8 8 8 7 7 6 6 6 6 7 6 6 6 6 5 5 5 4 4 4 4 4 4 6 7 8 7 7 7 9 6 7 5 6 6 7 4 3 2 2 2
7 7 7 6 6 6 6 7 6 7 7 6 6 6 7 7 5 5 5 6 5 5 6 4 6 10 10 8 9 10 10 10 8 7 5 5 5 5 4 4 4 2 3
Wind_Direction
168 158 160 157 150 145 150 135 132 129 135 130 132 124 132 126 118 108 104 111 107 108 100 102 91 86 81 75 72 73 75 81 118 124 61 341 44 30 21 25 30 30 16
167 165 159 138 140 149 140 135 132 140 122 130 129 123 129 124 118 120 118 119 124 122 117 111 117 107 82 76 75 75 74 52 125 122 30 21 43 14 11 32 36 36 26
148 140 138 148 146 137 137 132 130 129 124 128 123 126 127 123 117 100 117 119 109 107 122 119 119 112 95 86 81 81 69 73 67 107 99 25 26 28 360 358 15 18 25
144 151 149 149 150 144 141 135 137 138 139 133 122 129 127 124 123 118 112 107 106 104 107 110 107 113 120 105 94 95 92 87 86 97 85 54 41 358 15 3 354 9 19
152 151 156 142 141 135 138 138 135 144 143 130 120 134 115 130 137 127 131 125 125 116 105 107 114 125 122 122 117 107 98 92 95 90 77 63 32 12 14 335 312 331 299
164 151 148 136 137 139 141 137 132 125 133 140 139 135 131 145 149 146 140 138 135 132 129 134 116 107 111 112 113 112 116 117 110 98 98 95 294 306 330 331 340 16 341
154 151 150 142 141 147 135 130 124 134 135 123 120 124 130 138 148 146 145 131 132 131 123 119 117 125 116 118 115 107 98 94 94 110 108 119 97 123 307 342 339 321 261
151 154 150 146 141 145 142 142 149 146 136 128 132 129 148 160 155 151 143 125 122 115 116 117 117 124 125 119 118 106 90 100 112 94 89 98 92 75 19 356 314 315 246
163 159 157 155 147 151 154 148 145 142 136 145 142 151 163 159 160 155 137 129 127 119 120 115 130 149 159 147 134 123 99 74 117 96 82 72 69 45 33 15 15 2 348
165 159 158 151 153 159 146 146 143 143 143 145 155 162 162 162 165 157 143 138 136 128 127 131 135 157 163 155 139 139 127 99 102 87 49 53 51 45 42 40 341 343 332
156 151 149 147 150 140 137 137 145 146 142 152 158 160 154 160 173 165 162 153 143 134 131 124 137 153 158 154 134 131 139 135 86 101 84 54 35 35 34 22 27 16 22
141 143 144 143 139 136 133 143 147 144 149 151 146 142 148 150 161 174 173 157 152 141 146 144 154 145 142 131 123 129 124 107 101 91 77 55 38 8 358 356 358 17 338
143 147 142 137 139 139 145 148 146 156 155 154 155 155 157 151 167 174 172 163 156 131 145 158 157 147 141 140 138 132 118 117 121 110 120 92 99 312 307 324 354 344 333
146 144 144 140 142 145 145 154 158 160 158 159 159 160 159 165 165 170 168 163 155 131 151 156 138 115 105 110 110 115 132 142 147 152 166 171 298 33 38 16 11 360 9
141 143 144 141 140 144 154 160 163 171 166 164 167 161 163 178 187 169 162 159 151 153 133 119 117 119 137 138 124 143 142 149 141 153 155 148 102 61 34 15 32 13 39
140 142 143 143 146 147 149 148 161 157 170 165 159 164 174 170 171 171 168 165 163 153 129 153 160 162 174 177 176 175 188 184 177 164 159 168 171 163 150 7 48 28 351
145 145 143 146 147 149 155 156 152 161 163 163 170 173 170 166 173 174 175 174 169 160 157 175 179 182 189 187 186 182 192 194 162 177 174 185 177 195 199 243 328 325 313
141 144 147 150 150 152 154 152 149 153 155 153 166 168 173 169 178 178 173 166 169 184 172 176 185 186 193 193 188 190 188 165 183 182 185 187 190 189 197 223 238 251 276
139 141 139 141 146 145 143 142 144 146 149 147 126 155 176 178 178 178 174 172 177 184 184 188 189 188 194 193 187 182 176 182 180 171 189 190 189 190 208 211 228 234 265
134 136 139 140 141 142 143 143 145 152 150 157 163 169 152 155 173 172 175 169 181 184 183 193 190 189 190 191 183 177 176 171 176 186 190 190 184 192 204 207 204 234 253
131 138 138 138 145 149 147 152 153 153 158 165 166 159 165 170 176 177 181 182 186 189 182 188 184 189 186 182 176 179 188 185 186 183 183 189 167 196 205 201 214 228 251
136 139 142 146 144 143 145 145 149 152 155 153 137 145 167 149 171 178 185 189 190 189 181 180 183 186 186 185 184 182 189 189 183 177 177 173 180 196 183 187 202 217 239
139 141 139 143 145 137 137 143 146 149 150 144 148 154 171 169 165 174 181 174 173 173 170 175 179 176 172 175 181 185 189 194 184 163 166 171 178 180 175 182 190 207 220
143 147 146 145 147 150 152 154 154 153 152 151 157 165 173 174 176 177 171 160 157 156 161 165 168 164 152 144 141 141 132 132 138 154 151 159 166 163 164 168 183 194 216
144 147 148 152 155 156 146 147 151 153 156 159 166 171 174 171 168 173 160 145 138 139 130 124 121 132 136 131 121 112 115 119 122 129 131 138 152 157 163 163 159 180 186
148 149 147 144 145 146 151 153 156 157 164 167 167 169 171 174 163 144 140 138 130 120 120 116 122 119 116 109 112 114 111 109 108 113 126 133 143 156 160 157 161 173 194